TimeEDT,TemperatureF,Dew PointF,Humidity,Sea Level PressureIn,VisibilityMPH,Wind Direction,Wind SpeedMPH,Gust SpeedMPH,PrecipitationIn,Events,Conditions,WindDirDegrees,DateUTC
12:16 AM,59.9,59.9,100,29.72,10.0,Calm,Calm,-,N/A,,Clear,0,2013-07-20 04:16:00
12:36 AM,59.2,59.2,100,29.72,10.0,Calm,Calm,-,N/A,,Clear,0,2013-07-20 04:36:00
12:56 AM,59.4,59.4,100,29.72,10.0,Calm,Calm,-,N/A,,Clear,0,2013-07-20 04:56:00
1:16 AM,60.8,59.2,94,29.72,10.0,Calm,Calm,-,N/A,,Clear,0,2013-07-20 05:16:00
1:36 AM,59.7,59.0,97,29.73,10.0,WSW,3.5,-,N/A,,Clear,240,2013-07-20 05:36:00
1:56 AM,60.8,59.9,97,29.73,7.0,Calm,Calm,-,N/A,,Clear,0,2013-07-20 05:56:00
2:16 AM,59.4,58.8,98,29.73,10.0,Calm,Calm,-,N/A,,Clear,0,2013-07-20 06:16:00
2:35 AM,58.5,58.1,99,29.73,10.0,Calm,Calm,-,N/A,,Clear,0,2013-07-20 06:35:00
2:56 AM,56.8,56.8,100,29.73,7.0,Calm,Calm,-,N/A,,Clear,0,2013-07-20 06:56:00
3:16 AM,58.3,58.3,100,29.73,10.0,Calm,Calm,-,N/A,,Clear,0,2013-07-20 07:16:00
3:35 AM,60.1,59.9,99,29.72,10.0,Calm,Calm,-,N/A,,Clear,0,2013-07-20 07:35:00
3:56 AM,59.0,58.1,97,29.72,10.0,Calm,Calm,-,N/A,,Clear,0,2013-07-20 07:56:00
4:16 AM,59.4,58.8,98,29.72,10.0,Calm,Calm,-,N/A,,Clear,0,2013-07-20 08:16:00
4:36 AM,59.4,57.7,94,29.73,10.0,Calm,Calm,-,N/A,,Clear,0,2013-07-20 08:36:00
4:56 AM,58.1,57.6,98,29.73,10.0,Calm,Calm,-,N/A,,Scattered Clouds,0,2013-07-20 08:56:00
5:15 AM,58.6,58.5,99,29.72,10.0,Calm,Calm,-,N/A,,Mostly Cloudy,0,2013-07-20 09:15:00
5:36 AM,61.3,58.5,90,29.73,10.0,West,3.5,-,N/A,,Mostly Cloudy,260,2013-07-20 09:36:00
5:56 AM,63.0,59.4,88,29.73,10.0,West,3.5,-,N/A,,Overcast,280,2013-07-20 09:56:00
6:16 AM,63.5,59.5,87,29.73,10.0,Calm,Calm,-,N/A,,Overcast,0,2013-07-20 10:16:00
6:36 AM,63.9,58.8,84,29.73,10.0,West,4.6,-,N/A,,Overcast,270,2013-07-20 10:36:00
6:56 AM,64.8,57.6,77,29.74,10.0,West,6.9,-,N/A,,Overcast,280,2013-07-20 10:56:00
7:16 AM,63.9,57.9,81,29.75,10.0,West,8.1,-,N/A,,Mostly Cloudy,280,2013-07-20 11:16:00
7:36 AM,63.7,58.6,84,29.75,10.0,WNW,6.9,-,N/A,,Mostly Cloudy,290,2013-07-20 11:36:00
7:55 AM,63.3,58.5,84,29.76,10.0,NW,3.5,-,N/A,,Mostly Cloudy,310,2013-07-20 11:55:00
8:16 AM,63.9,58.1,81,29.77,10.0,WNW,6.9,-,N/A,,Scattered Clouds,290,2013-07-20 12:16:00
8:36 AM,63.7,57.2,79,29.79,10.0,NW,5.8,-,N/A,,Clear,320,2013-07-20 12:36:00
8:55 AM,64.4,57.2,77,29.80,10.0,NW,5.8,-,N/A,,Clear,310,2013-07-20 12:55:00
9:16 AM,64.6,57.7,78,29.81,10.0,North,4.6,-,N/A,,Clear,350,2013-07-20 13:16:00
9:36 AM,66.0,57.4,74,29.81,10.0,NW,5.8,-,N/A,,Clear,320,2013-07-20 13:36:00
9:56 AM,66.6,57.0,71,29.82,10.0,NNW,5.8,-,N/A,,Clear,330,2013-07-20 13:56:00
10:16 AM,67.1,56.5,69,29.82,10.0,NNW,8.1,-,N/A,,Clear,330,2013-07-20 14:16:00
10:36 AM,68.7,54.7,61,29.82,10.0,NNW,6.9,-,N/A,,Clear,330,2013-07-20 14:36:00
10:56 AM,69.1,54.5,60,29.83,10.0,WNW,9.2,-,N/A,,Clear,300,2013-07-20 14:56:00
11:16 AM,69.3,52.5,55,29.83,10.0,NW,10.4,18.4,N/A,,Clear,320,2013-07-20 15:16:00
11:36 AM,68.9,50.7,52,29.85,10.0,WNW,11.5,17.3,N/A,,Clear,300,2013-07-20 15:36:00
11:56 AM,69.6,53.6,57,29.85,10.0,NW,6.9,-,N/A,,Clear,310,2013-07-20 15:56:00
12:16 PM,69.1,53.2,57,29.86,10.0,WNW,8.1,16.1,N/A,,Clear,290,2013-07-20 16:16:00
12:36 PM,69.3,51.8,54,29.87,10.0,WNW,11.5,18.4,N/A,,Clear,290,2013-07-20 16:36:00
12:56 PM,69.3,51.6,53,29.87,10.0,NW,10.4,16.1,N/A,,Clear,310,2013-07-20 16:56:00
1:15 PM,69.1,50.7,52,29.88,10.0,WNW,10.4,18.4,N/A,,Clear,300,2013-07-20 17:15:00
1:36 PM,69.4,50.9,52,29.87,10.0,WNW,10.4,17.3,N/A,,Clear,300,2013-07-20 17:36:00
1:56 PM,68.7,49.1,50,29.87,10.0,WNW,10.4,18.4,N/A,,Clear,290,2013-07-20 17:56:00
2:16 PM,68.7,49.5,50,29.88,10.0,NW,9.2,17.3,N/A,,Clear,310,2013-07-20 18:16:00
2:36 PM,68.0,47.3,47,29.88,10.0,West,8.1,21.9,N/A,,Clear,280,2013-07-20 18:36:00
2:56 PM,67.8,47.1,47,29.89,10.0,WNW,10.4,19.6,N/A,,Clear,290,2013-07-20 18:56:00
3:16 PM,68.2,47.7,48,29.89,10.0,WNW,9.2,18.4,N/A,,Clear,300,2013-07-20 19:16:00
3:35 PM,67.8,47.5,48,29.90,10.0,WNW,11.5,19.6,N/A,,Clear,290,2013-07-20 19:35:00
3:56 PM,67.3,49.3,52,29.89,10.0,West,9.2,18.4,N/A,,Clear,280,2013-07-20 19:56:00
4:16 PM,67.3,49.3,52,29.89,10.0,West,9.2,21.9,N/A,,Clear,280,2013-07-20 20:16:00
4:36 PM,67.3,49.6,53,29.89,10.0,WNW,9.2,18.4,N/A,,Clear,300,2013-07-20 20:36:00
4:56 PM,67.5,48.6,51,29.90,10.0,WNW,10.4,18.4,N/A,,Clear,290,2013-07-20 20:56:00
5:16 PM,67.1,45.7,46,29.90,10.0,WNW,5.8,17.3,N/A,,Clear,290,2013-07-20 21:16:00
5:36 PM,66.6,46.6,49,29.90,10.0,WNW,9.2,19.6,N/A,,Clear,290,2013-07-20 21:36:00
5:56 PM,66.2,46.9,50,29.90,10.0,West,9.2,16.1,N/A,,Clear,280,2013-07-20 21:56:00
6:16 PM,65.7,47.3,51,29.90,10.0,WNW,10.4,16.1,N/A,,Clear,290,2013-07-20 22:16:00
6:35 PM,65.3,47.5,52,29.90,10.0,WNW,8.1,16.1,N/A,,Clear,300,2013-07-20 22:35:00
6:56 PM,64.8,46.9,52,29.91,10.0,WNW,8.1,-,N/A,,Clear,290,2013-07-20 22:56:00
7:16 PM,63.9,47.1,54,29.92,10.0,WNW,8.1,-,N/A,,Clear,300,2013-07-20 23:16:00
7:35 PM,63.5,48.4,58,29.93,10.0,WNW,9.2,-,N/A,,Clear,300,2013-07-20 23:35:00
7:56 PM,62.4,48.6,60,29.93,10.0,WNW,12.7,18.4,N/A,,Clear,290,2013-07-20 23:56:00
8:16 PM,61.3,48.4,62,29.93,10.0,NW,6.9,-,N/A,,Clear,310,2013-07-21 00:16:00
8:36 PM,60.3,48.7,66,29.93,10.0,NW,8.1,-,N/A,,Clear,310,2013-07-21 00:36:00
8:56 PM,59.2,48.9,69,29.93,10.0,NW,4.6,-,N/A,,Clear,320,2013-07-21 00:56:00
9:16 PM,58.6,48.4,69,29.94,10.0,NW,10.4,-,N/A,,Clear,320,2013-07-21 01:16:00
9:36 PM,57.7,49.1,73,29.95,10.0,NW,5.8,-,N/A,,Clear,320,2013-07-21 01:36:00
9:56 PM,57.4,50.0,76,29.95,10.0,NW,5.8,-,N/A,,Clear,320,2013-07-21 01:56:00
10:15 PM,57.2,50.0,77,29.97,10.0,NW,8.1,-,N/A,,Clear,320,2013-07-21 02:15:00
10:36 PM,57.0,50.5,79,29.97,10.0,NW,4.6,-,N/A,,Clear,320,2013-07-21 02:36:00
10:56 PM,56.3,51.1,83,29.98,10.0,NNW,6.9,-,N/A,,Clear,330,2013-07-21 02:56:00
11:16 PM,56.3,51.8,85,29.98,10.0,Calm,Calm,-,N/A,,Clear,0,2013-07-21 03:16:00
11:36 PM,55.9,51.8,86,29.99,10.0,Calm,Calm,-,N/A,,Clear,0,2013-07-21 03:36:00
11:56 PM,55.4,51.8,88,29.99,10.0,Calm,Calm,-,N/A,,Clear,0,2013-07-21 03:56:00